User: anonymous   Login
Location: Young's Pond
(41.2695°N, 72.7766°W)
Time: 01:09:18
(UTC-05:00)
Language:

Spot 4 - Orbit

View from above orbital plane
View from above orbital plane
View from above satellite
View from above satellite

Ground track
Ground track

The orbit data is extracted from the following two-line orbital elements,

1 25260U 98017A   17323.78028588  .00000037  00000-0  19860-4 0  9990
2 25260  98.3416  45.5731 0013479 149.7651 210.4321 14.53506832 24455
Epoch (UTC): 19 November 2017 18:43:36
Eccentricity: 0.0013479
inclination: 98.3416°
perigee height: 704 km
apogee height: 724 km
right ascension of ascending node: 45.5731°
argument of perigee: 149.7651°
revolutions per day: 14.53506832
mean anomaly at epoch: 210.4321°
orbit number at epoch: 2445

The dashed part of the orbit path shows where the satellite is in the earth's shadow,  

DLR